Manila, Philippines

10:58 AM +08 on October 19, 2018 (GMT +0800)
Ninoy Aquino International

Weather History for RPLL - April, 2018

Change the Weather History Date:

Tuesday, April 17, 2018

  Actual Average Record
Temperature  
Mean Temperature 87 °F -  
Max Temperature 95 °F 90 °F 96 °F (2007)
Min Temperature 79 °F 77 °F 71 °F (2005)
Cooling Degree Days 22    
Growing Degree Days 37 (Base 50)    
Moisture  
Dew Point 70 °F    
Average Humidity 58    
Maximum Humidity 79    
Minimum Humidity 34    
Precipitation  
Precipitation 0.00 in 0.09 in - ()
Sea Level Pressure  
Sea Level Pressure 29.86 in    
Wind  
Wind Speed 7 mph ()    
Max Wind Speed 13 mph    
Max Gust Speed -    
Visibility 6.2 miles    
Events      
Averages and records for this station are not official NWS values.
T = Trace of Precipitation, MM = Missing Value Source: Averaged Metar Reports

Daily Weather History Graph

Daily Weather History Graph

Search for Another Location

Airport or City:

Astronomy

Apr. 17, 2018 Rise Set
Actual Time 5:41 AM +08 6:10 PM +08
Civil Twilight 5:19 AM +08 6:31 PM +08
Nautical Twilight 4:54 AM +08 6:57 PM +08
Astronomical Twilight 4:28 AM +08 7:23 PM +08
Moon 6:35 AM +08 (4/17) 7:23 PM +08 (4/17)
Length of Visible Light 13h 12m
Length of Day
12h 28m
New Moon, 1% of the Moon is Illuminated
Apr 17
New Moon
Apr 23
First Quarter
Apr 30
Full
May 8
Last Quarter
May 15
New

Hourly Weather History & Observations

Time (+08) Temp. Heat Index Dew Point Humidity Pressure Visibility Wind Dir Wind Speed Gust Speed Precip Events Conditions
12:00 AM 82.4 °F 89.5 °F 75.2 °F 79% 29.89 in 6.2 mi ESE 9.2 mph - N/A   Partly Cloudy
1:00 AM 82.4 °F 89.5 °F 75.2 °F 79% 29.86 in 6.2 mi ESE 9.2 mph - N/A   Partly Cloudy
2:00 AM 80.6 °F 85.4 °F 73.4 °F 79% 29.86 in 6.2 mi East 11.5 mph - N/A   Partly Cloudy
3:00 AM 80.6 °F 85.4 °F 73.4 °F 79% 29.83 in 6.2 mi ESE 6.9 mph - N/A   Partly Cloudy
4:00 AM 80.6 °F 85.4 °F 73.4 °F 79% 29.83 in 6.2 mi Calm Calm - N/A   Partly Cloudy
5:00 AM 80 °F - 73 °F 74% 29.86 in 6 mi East 4.5 mph - -   Haze
5:00 AM 80.6 °F 85.4 °F 73.4 °F 79% 29.86 in 6.2 mi East 4.6 mph - N/A   Partly Cloudy
6:00 AM 80.6 °F 85.4 °F 73.4 °F 79% 29.86 in 6.2 mi East 5.8 mph - N/A   Scattered Clouds
7:00 AM 82.4 °F 88.2 °F 73.4 °F 74% 29.89 in 6.2 mi East 6.9 mph - N/A   Partly Cloudy
8:00 AM 86 °F - 68 °F 46% 29.90 in 6 mi ENE 4.5 mph - -   Haze
8:00 AM 86.0 °F 89.4 °F 68.0 °F 55% 29.89 in 6.2 mi ENE 5.8 mph - N/A   Partly Cloudy
9:00 AM 87.8 °F 91.4 °F 68.0 °F 52% 29.89 in 6.2 mi Variable 4.6 mph - N/A   Partly Cloudy
10:00 AM 87.8 °F 91.4 °F 68.0 °F 52% 29.89 in 6.2 mi Variable 4.6 mph - N/A   Partly Cloudy
11:00 AM 92 °F - 68 °F 36% 29.89 in 6 mi ESE 11.2 mph - -   Haze
11:00 AM 91.4 °F 95.4 °F 68.0 °F 46% 29.89 in 6.2 mi ESE 10.4 mph - N/A   Partly Cloudy
12:00 PM 93.2 °F 97.7 °F 68.0 °F 44% 29.86 in - ESE 11.5 mph - N/A   Partly Cloudy
1:00 PM 93.2 °F 97.7 °F 68.0 °F 44% 29.83 in 6.2 mi SE 12.7 mph - N/A   Partly Cloudy
2:00 PM 93 °F - 68 °F 34% 29.81 in 6 mi SE 13.4 mph - -   Haze
2:00 PM 93.2 °F 97.7 °F 68.0 °F 44% 29.80 in 6.2 mi SE 6.9 mph - N/A   Partly Cloudy
3:00 PM 95.0 °F 98.5 °F 66.2 °F 39% 29.80 in 6.2 mi SE 12.7 mph - N/A   Partly Cloudy
5:00 PM 91.4 °F 95.4 °F 68.0 °F 46% 29.80 in 6.2 mi SE 11.5 mph - N/A   Partly Cloudy
6:00 PM 87.8 °F 92.6 °F 69.8 °F 55% 29.83 in 6.2 mi SE 9.2 mph - N/A   Partly Cloudy
7:00 PM 86.0 °F 90.4 °F 69.8 °F 58% 29.83 in 6.2 mi SE 9.2 mph - N/A   Partly Cloudy
8:00 PM 85 °F - 68 °F 47% 29.85 in 6 mi SE 11.2 mph - -   Haze
8:00 PM 84.2 °F 87.3 °F 68.0 °F 58% 29.86 in 6.2 mi SE 10.4 mph - N/A   Partly Cloudy
9:00 PM 84.2 °F 86.6 °F 66.2 °F 55% 29.89 in 6.2 mi ESE 9.2 mph - N/A   Partly Cloudy
10:00 PM 82.4 °F 84.6 °F 66.2 °F 58% 29.89 in 6.2 mi ESE 8.1 mph - N/A   Partly Cloudy
11:00 PM 82 °F - 70 °F 58% 29.91 in 6 mi ESE 8.9 mph - -   Haze
11:00 PM 82.4 °F 86.3 °F 69.8 °F 66% 29.89 in 6.2 mi ESE 10.4 mph - N/A   Partly Cloudy